Current Version              Previous Version:    01  02  03  04  05  06  07  08  09  10  11  12  13  14  15  16  17  18  19  20  21  22  23  24  25  26  27  28  29  30  
   31  32  33  34  35  36  37  38  39  40  41  42  43  44  45  46  47  48  49  50  51  52  53  54  55  56  57  58  59  60  

[Printable]
453
ASUS44 KFWD 020001
RWRTX
NORTH TEXAS HOURLY WEATHER ROUNDUP
NATIONAL WEATHER SERVICE FORT WORTH TX
700 PM CDT WED OCT 01 2014

NOTE: "FAIR" INDICATES FEW OR NO CLOUDS BELOW 12,000 FEET WITH NO
SIGNIFICANT WEATHER AND/OR OBSTRUCTIONS TO VISIBILITY.

TXZ118-119-020100-
DALLAS/FORT WORTH METROPLEX

CITY           SKY/WX    TMP DP  RH WIND       PRES   REMARKS
DFW AIRPORT    PTCLDY    90  64  42 S15       29.72S HX  91
6HR MIN TEMP:  88; 6HR MAX TEMP:  93;

DALLAS LOVE    PTCLDY    90  65  43 S14       29.73R HX  92
6HR MIN TEMP:  88; 6HR MAX TEMP:  93;

FTW MEACHAM    CLEAR     90  65  43 SE16      29.72R HX  92
6HR MIN TEMP:  90; 6HR MAX TEMP:  95;

DAL-EXECUTIVE  CLEAR     91  64  40 SE13G20   29.73S HX  92
6HR MIN TEMP:  88; 6HR MAX TEMP:  94;

FTW-ALLIANCE   PTCLDY    88  64  44 S15G22    29.72R
6HR MIN TEMP:  88; 6HR MAX TEMP:  94;

FTW-NAS-JRB    PTCLDY    92  64  39 S17       29.76S HX  93
6HR MIN TEMP:  92; 6HR MAX TEMP:  97;

FTW-SPINKS     CLEAR     90  64  43 S17       29.74S HX  91
ARLINGTON      CLEAR     90  64  42 S13       29.73R HX  91
6HR MIN TEMP:  87; 6HR MAX TEMP:  93;

GRAND PRAIRIE  CLEAR     90  63  40 MISG      29.75R HX  90
ADDISON        CLEAR     90  63  40 SE15      29.73S HX  90
MESQUITE       CLEAR     90  64  43 SE7G16    29.74S HX  91
LANCASTER      CLEAR     89  63  41 S8        29.75R
6HR MIN TEMP:  86; 6HR MAX TEMP:  92;

$$

TXZ091>094-102>105-117-120-121-131>134-020100-
NORTH CENTRAL TEXAS

CITY           SKY/WX    TMP DP  RH WIND       PRES   REMARKS
SHRMAN/DENISON CLEAR     86  65  49 SE10      29.75S
6HR MIN TEMP:  86; 6HR MAX TEMP:  91;

GAINESVILLE    CLEAR     86  66  51 SE14      29.75R
6HR MIN TEMP:  85; 6HR MAX TEMP:  90;

BRIDGEPORT     CLEAR     90  60  35 S12G21    29.73R HX  90
6HR MIN TEMP:  90; 6HR MAX TEMP:  96;

DECATUR        CLEAR     88  63  43 SE14G22   29.74R
6HR MIN TEMP:  87; 6HR MAX TEMP:  92;

DENTON         CLEAR     89  64  43 S17       29.72S HX  90
6HR MIN TEMP:  88; 6HR MAX TEMP:  93;

MCKINNEY       CLEAR     88  67  49 SE12      29.74R HX  91
6HR MIN TEMP:  87; 6HR MAX TEMP:  91;

GREENVILLE     CLEAR     86  64  48 SE8       29.76R
ROCKWALL       CLEAR     87  68  51 SE8G16    29.74S HX  90
6HR MIN TEMP:  85; 6HR MAX TEMP:  91;

TERRELL        CLEAR     90  66  45 S8        29.76R HX  92
6HR MIN TEMP:  87; 6HR MAX TEMP:  93;

WAXAHACHIE     CLEAR     89  66  46 S8        29.75S HX  91
6HR MIN TEMP:  86; 6HR MAX TEMP:  93;

CLEBURNE       CLEAR     88  66  48 S14G21    29.75S HX  90
GRANBURY       CLEAR     91  65  40 SE12G18   29.74R HX  93
6HR MIN TEMP:  91; 6HR MAX TEMP:  95;

$$

TXZ083>090-098>101-113>116-127>130-139>142-154-155-020100-
WESTERN NORTH TEXAS

CITY           SKY/WX    TMP DP  RH WIND       PRES   REMARKS
WICHITA FALLS  PTCLDY    92  58  31 S12       29.66S HX  91
6HR MIN TEMP:  90; 6HR MAX TEMP:  98;

WF-KICKAPOO    CLEAR     94  54  26 S10       29.68S HX  91
6HR MIN TEMP:  90; 6HR MAX TEMP:  97;

VERNON         PTCLDY    94  60  32 S12       29.67S HX  94
6HR MIN TEMP:  85; 6HR MAX TEMP:  97;

ABILENE        PTCLDY    91  64  40 S15       29.72S HX  92
6HR MIN TEMP:  87; 6HR MAX TEMP:  95;

ABILENE-DYESS  PTCLDY    91  65  42 S13       29.71S HX  93
6HR MIN TEMP:  87; 6HR MAX TEMP:  95;

MINERAL WELLS  CLEAR     91  62  37 S12       29.71R HX  91
STEPHENVILLE   CLEAR     88  63  42 S13       29.77S
6HR MIN TEMP:  88; 6HR MAX TEMP:  93;

COMANCHE       CLEAR     89  62  40 S12G21    29.75R
6HR MIN TEMP:  89; 6HR MAX TEMP:  95;

COLEMAN        CLEAR     92  57  29 S9G18     29.74S HX  91
6HR MIN TEMP:  88; 6HR MAX TEMP:  96;

BRADY          CLEAR     88  64  45 SE7       29.77R
$$

TXZ143>147-156>162-174-175-020100-
CENTRAL TEXAS

CITY           SKY/WX    TMP DP  RH WIND       PRES   REMARKS
WACO           CLEAR     88  66  48 S14       29.75S HX  90
6HR MIN TEMP:  86; 6HR MAX TEMP:  93;

WACO-TSTC      CLEAR     88  66  48 S9        29.75S HX  90
WACO-MCGREGOR  CLEAR     90  64  43 S14       29.76R HX  91
6HR MIN TEMP:  88; 6HR MAX TEMP:  93;

CORSICANA      CLEAR     89  66  46 SE12      29.76S HX  91
6HR MIN TEMP:  85; 6HR MAX TEMP:  94;

MEXIA          CLEAR     86  68  54 SE8       29.76R
6HR MIN TEMP:  84; 6HR MAX TEMP:  91;

HEARNE         CLEAR     87  69  54 SE6       29.76S HX  91
6HR MIN TEMP:  86; 6HR MAX TEMP:  92;

CAMERON        CLEAR     87  70  56 S5        29.76S HX  92
6HR MIN TEMP:  87; 6HR MAX TEMP:  93;

TEMPLE         CLEAR     86  64  48 S8        29.76R
6HR MIN TEMP:  86; 6HR MAX TEMP:  91;

KILLEEN        PTCLDY    88  66  48 SE12      29.77R HX  90
KILLEEN-SKYLRK CLEAR     88  64  45 SE12      29.77R
6HR MIN TEMP:  88; 6HR MAX TEMP:  91;

FORT HOOD      CLEAR     89  67  47 SE9       29.77R HX  92
6HR MIN TEMP:  89; 6HR MAX TEMP:  94;

HAMILTON       CLEAR     89  63  41 S14       29.78R
6HR MIN TEMP:  88; 6HR MAX TEMP:  93;

LAMPASAS       CLEAR     87  68  53 SE6       29.77S HX  90
6HR MIN TEMP:  84; 6HR MAX TEMP:  91;

$$

TXZ095>097-106>112-122>126-135>138-148>153-164>167-020100-
EAST TEXAS

CITY           SKY/WX    TMP DP  RH WIND       PRES   REMARKS
PARIS          CLEAR     84  66  54 SE8       29.77S
6HR MIN TEMP:  81; 6HR MAX TEMP:  90;

SULPHUR SPRNGS CLEAR     88  67  49 S8        29.78R HX  91
6HR MIN TEMP:  85; 6HR MAX TEMP:  92;

MOUNT PLEASANT CLEAR    N/A N/A N/A SE6       29.79R
MINEOLA        CLEAR     88  72  58 SE3       29.78R HX  94
TYLER          CLEAR     86  70  58 SE9       29.77S HX  90
6HR MIN TEMP:  86; 6HR MAX TEMP:  91;

LONGVIEW       CLEAR     86  69  56 S8        29.78S HX  90
6HR MIN TEMP:  86; 6HR MAX TEMP:  92;

MARSHALL       CLEAR     89  74  61 S6        29.82R HX  97
6HR MIN TEMP:  89; 6HR MAX TEMP:  94;

ATHENS         CLEAR     86  68  54 S7        29.76R
PALESTINE      CLEAR     87  71  58 SE3       29.79R HX  92
JACKSONVILLE   CLEAR     85  72  64 SE7       29.82R HX  90
HENDERSON      PTCLDY    85  70  60 SE6       29.80R
6HR MIN TEMP:  84; 6HR MAX TEMP:  91;

NACOGDOCHES    CLEAR     82  73  74 SE7       29.81R
6HR MIN TEMP:  82; 6HR MAX TEMP:  90;

LUFKIN         CLEAR     83  74  74 SE7       29.81R
6HR MIN TEMP:  83; 6HR MAX TEMP:  92; 6HR PCP: TRACE;

$$

SUPPLEMENTAL OBSERVATIONS (CENTRAL)

CITY           SKY/WX    TMP DP  RH WIND       PRES   REMARKS
$$

SUPPLEMENTAL OBSERVATIONS (WEST)

CITY           SKY/WX    TMP DP  RH WIND       PRES   REMARKS
$$

SUPPLEMENTAL OBSERVATIONS (EAST)

CITY           SKY/WX    TMP DP  RH WIND       PRES   REMARKS
$$

SUPPLEMENTAL OBSERVATIONS ARE A COLLECTION OF AUTOMATED INSTRUMENTS
THAT ARE MAINTAINED BY A VARIETY OF FEDERAL AND STATE AGENCIES.
CERTAIN ELEMENTS...SUCH AS HUMIDITY VALUES AND SUSTAINED WIND
SPEEDS...MAY BE APPROXIMATED.